Location: Houhaj�rvi
(61.2667°N, 23.0167°E)
Time: 18:38:20
(UTC+00:00)

Cosmos 2315 Rocket - Pass Details

Date: 13 December 2019
Orbit: 965 x 1003 km, 82.9° (Epoch: 16 January)

Event Time Altitude Azimuth Distance (km) Brightness Sun altitude
Rises 17:38:05 0° 345° (NNW) 3,736 7.3 -29.3°
Reaches altitude 10° 17:40:39 10° 344° (NNW) 2,778 6.6 -29.6°
Maximum altitude 17:46:59 73° 262° (W) 1,039 4.1 -30.3°
Enters shadow 17:49:08 43° 190° (S) 1,353 4.7 -30.6°
